Weather History for Litchfield, MN

Change the Weather History Date:

Friday, June 8, 2012

  Actual Average Record
Temperature  
Mean Temperature 76 °F -  
Max Temperature 87 °F 78 °F 94 °F (1976)
Min Temperature 66 °F 54 °F 8 °F (1999)
Cooling Degree Days 12    
Growing Degree Days 26 (Base 50)    
Moisture  
Dew Point 59 °F    
Average Humidity 59    
Maximum Humidity 83    
Minimum Humidity 33    
Precipitation  
Precipitation 0.00 in - - ()
Sea Level Pressure  
Sea Level Pressure 29.87 in    
Wind  
Wind Speed 4 mph (SSW)    
Max Wind Speed 10 mph    
Max Gust Speed 18 mph    
Visibility 10 miles    
Events Rain    
Averages and records for this station are not official NWS values.
T = Trace of Precipitation, MM = Missing Value Source: NWS Daily Summary

Daily Weather History Graph

Daily Weather History Graph

Search for Another Location

Airport:

Trip Planner

Search our weather history database for the weather conditions in past years. The results will help you decide how hot, cold, wet, or windy it might be!

Date:

Astronomy

Jun. 08, 2012 Rise Set
Actual Time 5:31 AM CDT 9:03 PM CDT
Civil Twilight 4:54 AM CDT 9:40 PM CDT
Nautical Twilight 4:05 AM CDT 10:29 PM CDT
Astronomical Twilight 3:01 AM CDT 11:34 PM CDT
Moon No Moon Rise 10:21 AM CDT (6/8)
Length of Visible Light 16h 46m
Length of Day
15h 32m
Waning Gibbous, 77% of the Moon is Illuminated
Jun 8
Waning Gibbous
Jun 11
Last Quarter
Jun 19
New
Jun 26
First Quarter
Jul 3
Full

Hourly Weather History & Observations

Time (CDT) Temp. Heat Index Dew Point Humidity Pressure Visibility Wind Dir Wind Speed Gust Speed Precip Events Conditions
12:13 AM 69.8 °F - 64.4 °F 83% 29.97 in 10.0 mi Calm Calm - N/A   Scattered Clouds
12:33 AM 69.8 °F - 62.6 °F 78% 29.96 in 10.0 mi Calm Calm - N/A   Clear
12:53 AM 69.8 °F - 62.6 °F 78% 29.96 in 10.0 mi South 4.6 mph - N/A   Scattered Clouds
1:13 AM 69.8 °F - 62.6 °F 78% 29.96 in 10.0 mi South 4.6 mph - N/A   Scattered Clouds
1:33 AM 69.8 °F - 60.8 °F 73% 29.96 in 10.0 mi SSW 3.5 mph - N/A   Scattered Clouds
1:53 AM 69.8 °F - 60.8 °F 73% 29.95 in 10.0 mi South 3.5 mph - N/A   Scattered Clouds
2:13 AM 69.8 °F - 60.8 °F 73% 29.96 in 10.0 mi SSW 4.6 mph - N/A   Scattered Clouds
2:33 AM 69.8 °F - 60.8 °F 73% 29.96 in 10.0 mi SSW 3.5 mph - N/A   Scattered Clouds
2:53 AM 69.8 °F - 60.8 °F 73% 29.96 in 10.0 mi Calm Calm - N/A   Scattered Clouds
3:13 AM 68.0 °F - 60.8 °F 78% 29.95 in 10.0 mi SSW 3.5 mph - N/A   Scattered Clouds
3:33 AM 68.0 °F - 60.8 °F 78% 29.95 in 10.0 mi SSW 3.5 mph - N/A   Scattered Clouds
3:52 AM 68.0 °F - 60.8 °F 78% 29.94 in 10.0 mi SSW 4.6 mph - N/A   Scattered Clouds
4:13 AM 66.2 °F - 60.8 °F 83% 29.94 in 10.0 mi SSW 3.5 mph - N/A   Scattered Clouds
4:33 AM 66.2 °F - 60.8 °F 83% 29.93 in 10.0 mi South 3.5 mph - N/A   Scattered Clouds
4:53 AM 66.2 °F - 60.8 °F 83% 29.93 in 10.0 mi SSW 4.6 mph - N/A   Clear
5:13 AM 66.2 °F - 60.8 °F 83% 29.92 in 10.0 mi SSW 4.6 mph - N/A   Clear
5:33 AM 66.2 °F - 60.8 °F 83% 29.92 in 10.0 mi South 5.8 mph - N/A   Clear
5:53 AM 66.2 °F - 60.8 °F 83% 29.91 in 10.0 mi South 3.5 mph - N/A   Clear
6:13 AM 66.2 °F - 60.8 °F 83% 29.92 in 10.0 mi South 5.8 mph - N/A   Clear
6:33 AM 68.0 °F - 60.8 °F 78% 29.92 in 10.0 mi SSW 4.6 mph - N/A   Scattered Clouds
6:53 AM 69.8 °F - 60.8 °F 73% 29.93 in 10.0 mi SSW 4.6 mph - N/A   Mostly Cloudy
7:13 AM 69.8 °F - 60.8 °F 73% 29.93 in 10.0 mi SSW 5.8 mph - N/A   Mostly Cloudy
7:33 AM 68.0 °F - 60.8 °F 78% 29.93 in 10.0 mi SW 5.8 mph - N/A Rain Light Rain
7:53 AM 69.8 °F - 60.8 °F 73% 29.93 in 10.0 mi SW 4.6 mph - N/A   Scattered Clouds
8:13 AM 69.8 °F - 59.0 °F 68% 29.94 in 10.0 mi SW 5.8 mph - N/A   Clear
8:33 AM 71.6 °F - 59.0 °F 64% 29.94 in 10.0 mi SW 4.6 mph - N/A   Clear
8:53 AM 71.6 °F - 60.8 °F 69% 29.93 in 10.0 mi SSW 5.8 mph - N/A   Clear
9:13 AM 71.6 °F - 60.8 °F 69% 29.93 in 10.0 mi SW 4.6 mph - N/A   Clear
9:33 AM 71.6 °F - 60.8 °F 69% 29.94 in 10.0 mi SW 4.6 mph - N/A   Clear
9:53 AM 71.6 °F - 60.8 °F 69% 29.93 in 10.0 mi SSW 3.5 mph - N/A   Clear
10:13 AM 73.4 °F - 60.8 °F 65% 29.93 in 10.0 mi Calm Calm - N/A   Clear
10:33 AM 73.4 °F - 60.8 °F 65% 29.93 in 10.0 mi SW 4.6 mph - N/A   Scattered Clouds
10:53 AM 75.2 °F - 62.6 °F 65% 29.92 in 10.0 mi SSW 4.6 mph - N/A   Scattered Clouds
11:13 AM 75.2 °F - 60.8 °F 61% 29.92 in 10.0 mi WSW 4.6 mph - N/A   Clear
11:33 AM 75.2 °F - 60.8 °F 61% 29.91 in 10.0 mi SSW 4.6 mph - N/A   Clear
11:53 AM 77.0 °F - 59.0 °F 54% 29.91 in 10.0 mi SW 5.8 mph - N/A   Clear
12:13 PM 77.0 °F - 59.0 °F 54% 29.90 in 10.0 mi SSW 4.6 mph - N/A   Clear
12:33 PM 77.0 °F - 60.8 °F 57% 29.90 in 10.0 mi WSW 3.5 mph - N/A   Clear
12:53 PM 78.8 °F - 60.8 °F 54% 29.89 in 10.0 mi SW 4.6 mph - N/A   Clear
1:13 PM 78.8 °F - 60.8 °F 54% 29.89 in 10.0 mi SSE 3.5 mph - N/A   Clear
1:33 PM 78.8 °F - 62.6 °F 57% 29.88 in 10.0 mi South 4.6 mph - N/A   Scattered Clouds
1:53 PM 78.8 °F - 62.6 °F 57% 29.87 in 10.0 mi South 5.8 mph - N/A   Clear
2:13 PM 80.6 °F 81.8 °F 62.6 °F 54% 29.86 in 10.0 mi SSW 3.5 mph - N/A   Clear
2:33 PM 82.4 °F 82.9 °F 60.8 °F 48% 29.86 in 10.0 mi SSW 6.9 mph - N/A   Clear
2:52 PM 82.4 °F 83.4 °F 62.6 °F 51% 29.83 in 10.0 mi SW 4.6 mph - N/A   Clear
3:13 PM 82.4 °F 82.9 °F 60.8 °F 48% 29.82 in 10.0 mi SSW 4.6 mph - N/A   Scattered Clouds
3:33 PM 84.2 °F 85.0 °F 62.6 °F 48% 29.81 in 10.0 mi WSW 3.5 mph - N/A   Scattered Clouds
3:52 PM 86.0 °F 85.4 °F 59.0 °F 40% 29.80 in 10.0 mi SSW 9.2 mph - N/A   Scattered Clouds
4:13 PM 86.0 °F 84.9 °F 57.2 °F 37% 29.80 in 10.0 mi SW 9.2 mph 18.4 mph N/A   Scattered Clouds
4:33 PM 87.8 °F 86.5 °F 57.2 °F 35% 29.79 in 10.0 mi WSW 10.4 mph - N/A   Scattered Clouds
4:52 PM 87.8 °F 86.5 °F 57.2 °F 35% 29.78 in 10.0 mi SW 8.1 mph 17.3 mph N/A   Scattered Clouds
5:33 PM 86.0 °F 84.5 °F 55.4 °F 35% 29.77 in 10.0 mi SW 8.1 mph 18.4 mph N/A   Scattered Clouds
5:52 PM 86.0 °F 84.2 °F 53.6 °F 33% 29.76 in 10.0 mi SW 8.1 mph - N/A   Scattered Clouds
6:13 PM 86.0 °F 84.2 °F 53.6 °F 33% 29.76 in 10.0 mi SW 6.9 mph 18.4 mph N/A   Scattered Clouds
6:33 PM 86.0 °F 84.2 °F 53.6 °F 33% 29.76 in 10.0 mi SW 6.9 mph - N/A   Clear
6:52 PM 86.0 °F 84.5 °F 55.4 °F 35% 29.76 in 10.0 mi SW 5.8 mph - N/A   Scattered Clouds
7:13 PM 84.2 °F 82.8 °F 53.6 °F 35% 29.75 in 10.0 mi SSW 4.6 mph - N/A   Clear
7:32 PM 84.2 °F 83.0 °F 55.4 °F 37% 29.75 in 10.0 mi SW 5.8 mph - N/A   Clear
7:53 PM 84.2 °F 82.8 °F 53.6 °F 35% 29.74 in 10.0 mi SSW 4.6 mph - N/A   Clear
8:13 PM 82.4 °F 81.4 °F 53.6 °F 37% 29.74 in 10.0 mi SSW 4.6 mph - N/A   Clear
8:32 PM 82.4 °F 81.4 °F 53.6 °F 37% 29.75 in 10.0 mi SSW 4.6 mph - N/A   Clear
8:53 PM 80.6 °F 80.3 °F 53.6 °F 39% 29.75 in 10.0 mi South 3.5 mph - N/A   Clear
9:13 PM 78.8 °F - 53.6 °F 42% 29.75 in 10.0 mi Calm Calm - N/A   Clear
9:32 PM 78.8 °F - 53.6 °F 42% 29.75 in 10.0 mi Calm Calm - N/A   Clear
9:53 PM 77.0 °F - 55.4 °F 47% 29.75 in 10.0 mi Calm Calm - N/A   Clear
10:13 PM 75.2 °F - 55.4 °F 50% 29.76 in 10.0 mi Calm Calm - N/A   Clear
10:33 PM 75.2 °F - 55.4 °F 50% 29.76 in 10.0 mi Calm Calm - N/A   Clear
10:53 PM 75.2 °F - 57.2 °F 53% 29.76 in 10.0 mi South 3.5 mph - N/A   Clear
11:33 PM 75.2 °F - 57.2 °F 53% 29.76 in 10.0 mi South 3.5 mph - N/A   Clear
11:53 PM 73.4 °F - 57.2 °F 57% 29.76 in 10.0 mi SSW 4.6 mph - N/A   Clear